Location: Erp
(42.9417°N, 1.2009°E)
Time: 10:11:31
(UTC+00:00)

Resurs 01 Rocket - Pass Details

Date: 12 January 2026
Orbit: 627 x 635 km, 97.7° (Epoch: 11 February)

Event Time Altitude Azimuth Distance (km) Brightness Sun altitude
Rises 18:45:43 0° 161° (SSE) 2,901 4.9 -22.0°
Enters shadow 18:47:18 - 160° (SSE) 2,247 4.3 -22.3°
Exits shadow 18:53:18 50° 6° (N) 806 1.9 -23.4°
Drops below altitude 10° 18:56:37 10° 351° (N) 2,013 4.2 -24.0°
Sets 18:58:49 0° 350° (N) 2,925 5.1 -24.4°
